SWA2780 KMDW-KROC

Flight info

Callsign SWA2780
Flight time 1h 12m
Altitude 37000
Route LEWKE GIJ EVOTE NELLS KEEHO DKK BUF
Aircraft B737/M-SDE2E3FGHIRWXY/LB1

Departure

Time 2026-05-09 18:50
Airport Chicago Midway International Airport (KMDW)

Arrival

Time 2026-05-09 20:02
Airport Frederick Douglass Greater Rochester International Airport (KROC)
Time Latitude Longitude Altitude Speed Heading
2026-05-09 18:29 41.78868 -87.74402 628 ft 0 kts 142°
2026-05-09 18:40 41.78896 -87.74435 633 ft 1 kts 98°
2026-05-09 18:40 41.78896 -87.74447 628 ft 1 kts 86°
2026-05-09 18:40 41.78896 -87.74453 628 ft 0 kts 84°
2026-05-09 18:46 41.78896 -87.74452 628 ft 0 kts 84°
2026-05-09 18:46 41.78913 -87.74447 630 ft 6 kts
2026-05-09 18:46 41.78964 -87.74437 634 ft 9 kts 17°
2026-05-09 18:47 41.79017 -87.74382 629 ft 11 kts 44°
2026-05-09 18:47 41.79073 -87.74311 631 ft 10 kts 43°
2026-05-09 18:47 41.79093 -87.74287 630 ft 0 kts 42°
2026-05-09 18:47 41.79105 -87.74273 632 ft 8 kts 39°
2026-05-09 18:48 41.79167 -87.74277 633 ft 9 kts 324°
2026-05-09 18:48 41.79185 -87.74319 635 ft 2 kts 260°
2026-05-09 18:48 41.79176 -87.74338 637 ft 0 kts 223°
2026-05-09 18:49 41.79173 -87.74341 632 ft 9 kts 223°
2026-05-09 18:49 41.78921 -87.74660 634 ft 90 kts 223°
2026-05-09 18:49 41.78289 -87.75443 728 ft 145 kts 226°
2026-05-09 18:50 41.77572 -87.76339 1621 ft 139 kts 228°
2026-05-09 18:50 41.76668 -87.76952 2349 ft 161 kts 194°
2026-05-09 18:50 41.75425 -87.76624 2679 ft 210 kts 154°
2026-05-09 18:50 41.74335 -87.75114 2973 ft 247 kts 119°
2026-05-09 18:51 41.73914 -87.72791 3459 ft 265 kts 91°
2026-05-09 18:51 41.73955 -87.70305 4156 ft 275 kts 86°
2026-05-09 18:51 41.74066 -87.67668 4817 ft 291 kts 85°
2026-05-09 18:51 41.74192 -87.64932 5813 ft 297 kts 85°
2026-05-09 18:52 41.74315 -87.62149 6630 ft 303 kts 85°
2026-05-09 18:52 41.74433 -87.59315 6946 ft 308 kts 86°
2026-05-09 18:52 41.74547 -87.56429 6990 ft 311 kts 86°
2026-05-09 18:52 41.74656 -87.53547 7001 ft 309 kts 85°
2026-05-09 18:53 41.74759 -87.50683 7083 ft 310 kts 86°
2026-05-09 18:53 41.74860 -87.47774 7813 ft 316 kts 86°
2026-05-09 18:53 41.74962 -87.44814 8779 ft 321 kts 86°
2026-05-09 18:53 41.75064 -87.41805 9728 ft 326 kts 85°
2026-05-09 18:54 41.75167 -87.38740 10491 ft 336 kts 85°
2026-05-09 18:54 41.75278 -87.35480 10775 ft 365 kts 85°
2026-05-09 18:54 41.75394 -87.32015 11388 ft 377 kts 86°
2026-05-09 18:54 41.75508 -87.28490 12288 ft 381 kts 86°
2026-05-09 18:55 41.75622 -87.24923 13171 ft 387 kts 86°
2026-05-09 18:55 41.75737 -87.21289 13967 ft 394 kts 86°
2026-05-09 18:55 41.75853 -87.17592 14748 ft 401 kts 86°
2026-05-09 18:55 41.75970 -87.13825 15551 ft 409 kts 86°
2026-05-09 18:56 41.76090 -87.09978 16408 ft 419 kts 86°
2026-05-09 18:56 41.76212 -87.06052 17292 ft 425 kts 86°
2026-05-09 18:56 41.76297 -87.02056 18080 ft 432 kts 87°
2026-05-09 18:56 41.76348 -86.98002 18735 ft 439 kts 87°
2026-05-09 18:57 41.76384 -86.93930 19427 ft 446 kts 87°
2026-05-09 18:57 41.76419 -86.89748 20071 ft 453 kts 86°
2026-05-09 18:57 41.76455 -86.85508 20766 ft 458 kts 86°
2026-05-09 18:57 41.76493 -86.81218 21448 ft 464 kts 86°
2026-05-09 18:58 41.76533 -86.76875 22120 ft 470 kts 85°
2026-05-09 18:58 41.76575 -86.72464 22805 ft 476 kts 85°
2026-05-09 18:58 41.76615 -86.67998 23430 ft 483 kts 85°
2026-05-09 18:58 41.76654 -86.63477 23948 ft 488 kts 85°
2026-05-09 18:59 41.76691 -86.58918 24518 ft 492 kts 85°
2026-05-09 18:59 41.76725 -86.54321 25096 ft 496 kts 85°
2026-05-09 18:59 41.76758 -86.49664 25582 ft 502 kts 85°
2026-05-09 18:59 41.76789 -86.44977 26097 ft 506 kts 85°
2026-05-09 19:00 41.76818 -86.40241 26621 ft 510 kts 85°
2026-05-09 19:00 41.77039 -86.30698 27607 ft 513 kts 77°
2026-05-09 19:00 41.77702 -86.26018 28094 ft 511 kts 70°
2026-05-09 19:01 41.78522 -86.21375 28580 ft 513 kts 69°
2026-05-09 19:01 41.79379 -86.16719 29046 ft 517 kts 69°
2026-05-09 19:01 41.80240 -86.12019 29524 ft 521 kts 69°
2026-05-09 19:01 41.81086 -86.07290 29950 ft 524 kts 69°
2026-05-09 19:02 41.81920 -86.02510 30311 ft 528 kts 69°
2026-05-09 19:02 41.82743 -85.97698 30687 ft 531 kts 70°
2026-05-09 19:02 41.83559 -85.92861 31052 ft 533 kts 70°
2026-05-09 19:02 41.84373 -85.88013 31402 ft 536 kts 70°
2026-05-09 19:03 41.85191 -85.83127 31746 ft 538 kts 70°
2026-05-09 19:03 41.86008 -85.78232 32172 ft 537 kts 70°
2026-05-09 19:03 41.86823 -85.73342 32672 ft 535 kts 70°
2026-05-09 19:03 41.87632 -85.68476 33148 ft 533 kts 70°
2026-05-09 19:04 41.88438 -85.63629 33584 ft 533 kts 70°
2026-05-09 19:04 41.89244 -85.58776 33946 ft 533 kts 70°
2026-05-09 19:04 41.90048 -85.53920 34307 ft 532 kts 70°
2026-05-09 19:04 41.90846 -85.49078 34723 ft 530 kts 70°
2026-05-09 19:05 41.91639 -85.44253 35071 ft 529 kts 71°
2026-05-09 19:05 41.92428 -85.39437 35457 ft 527 kts 71°
2026-05-09 19:05 41.93212 -85.34643 35840 ft 525 kts 71°
2026-05-09 19:05 41.93991 -85.29868 36237 ft 522 kts 71°
2026-05-09 19:06 41.94745 -85.25174 36624 ft 521 kts 73°
2026-05-09 19:06 41.95237 -85.20255 36726 ft 531 kts 83°
2026-05-09 19:06 41.95258 -85.10342 36734 ft 535 kts 88°
2026-05-09 19:07 41.95106 -85.00402 36747 ft 529 kts 88°
2026-05-09 19:07 41.95003 -84.90524 36741 ft 528 kts 87°
2026-05-09 19:08 41.94947 -84.80664 36732 ft 527 kts 87°
2026-05-09 19:08 41.94898 -84.70827 36732 ft 527 kts 87°
2026-05-09 19:09 41.94837 -84.60985 36732 ft 527 kts 87°
2026-05-09 19:09 41.94764 -84.51124 36729 ft 529 kts 87°
2026-05-09 19:10 41.94680 -84.41243 36731 ft 530 kts 87°
2026-05-09 19:10 41.94588 -84.31333 36734 ft 530 kts 88°
2026-05-09 19:11 41.94487 -84.21424 36741 ft 531 kts 88°
2026-05-09 19:11 41.94377 -84.11515 36741 ft 531 kts 88°
2026-05-09 19:12 41.94260 -84.01661 36741 ft 531 kts 88°
2026-05-09 19:12 41.94133 -83.91753 36738 ft 531 kts 88°
2026-05-09 19:13 41.93998 -83.81829 36741 ft 532 kts 88°
2026-05-09 19:13 41.93853 -83.71892 36726 ft 532 kts 88°
2026-05-09 19:14 41.93699 -83.61964 36726 ft 532 kts 88°
2026-05-09 19:14 41.93538 -83.52035 36749 ft 532 kts 88°
2026-05-09 19:15 41.93426 -83.42093 36702 ft 532 kts 87°
2026-05-09 19:15 41.93407 -83.32169 36702 ft 532 kts 86°
2026-05-09 19:16 41.93382 -83.22227 36711 ft 532 kts 87°
2026-05-09 19:16 41.93330 -83.12301 36727 ft 532 kts 87°
2026-05-09 19:17 41.93261 -83.02359 36719 ft 532 kts 88°
2026-05-09 19:17 41.93182 -82.92434 36721 ft 532 kts 88°
2026-05-09 19:18 41.93096 -82.82510 36734 ft 531 kts 88°
2026-05-09 19:18 41.93002 -82.72594 36747 ft 531 kts 88°
2026-05-09 19:19 41.92900 -82.62690 36752 ft 531 kts 88°
2026-05-09 19:19 41.92789 -82.52779 36754 ft 530 kts 88°
2026-05-09 19:20 41.92670 -82.42885 36756 ft 530 kts 88°
2026-05-09 19:20 41.92542 -82.32985 36767 ft 530 kts 88°
2026-05-09 19:21 41.92406 -82.23146 36760 ft 530 kts 89°
2026-05-09 19:21 41.92261 -82.13255 36765 ft 530 kts 89°
2026-05-09 19:22 41.92106 -82.03359 36766 ft 530 kts 89°
2026-05-09 19:22 41.91943 -81.93464 36759 ft 530 kts 89°
2026-05-09 19:23 41.92020 -81.83590 36750 ft 526 kts 79°
2026-05-09 19:23 41.93698 -81.74165 36780 ft 516 kts 66°
2026-05-09 19:24 41.95951 -81.65025 36759 ft 515 kts 66°
2026-05-09 19:24 41.98179 -81.55880 36769 ft 515 kts 67°
2026-05-09 19:25 42.00347 -81.46706 36765 ft 515 kts 68°
2026-05-09 19:25 42.02483 -81.37523 36770 ft 514 kts 68°
2026-05-09 19:26 42.04607 -81.28343 36757 ft 514 kts 68°
2026-05-09 19:26 42.06729 -81.19152 36771 ft 514 kts 68°
2026-05-09 19:27 42.08846 -81.09954 36770 ft 515 kts 68°
2026-05-09 19:27 42.10952 -81.00759 36768 ft 514 kts 69°
2026-05-09 19:28 42.13040 -80.91544 36770 ft 514 kts 69°
2026-05-09 19:28 42.15130 -80.82337 36778 ft 514 kts 69°
2026-05-09 19:29 42.17213 -80.73137 36780 ft 513 kts 69°
2026-05-09 19:29 42.19296 -80.63938 36780 ft 513 kts 69°
2026-05-09 19:30 42.21365 -80.54735 36783 ft 513 kts 69°
2026-05-09 19:30 42.23076 -80.47080 36802 ft 512 kts 70°
2026-05-09 19:31 42.25124 -80.37879 36795 ft 512 kts 70°
2026-05-09 19:31 42.27496 -80.27177 36790 ft 511 kts 70°
2026-05-09 19:32 42.29196 -80.19478 36791 ft 511 kts 70°
2026-05-09 19:32 42.31218 -80.10281 36794 ft 511 kts 70°
2026-05-09 19:33 42.32230 -80.05664 36438 ft 516 kts 70°
2026-05-09 19:33 42.33249 -80.01012 35815 ft 516 kts 70°
2026-05-09 19:33 42.34263 -79.96362 35117 ft 516 kts 70°
2026-05-09 19:33 42.35274 -79.91715 34360 ft 517 kts 70°
2026-05-09 19:34 42.36276 -79.87100 33508 ft 519 kts 69°
2026-05-09 19:34 42.37293 -79.82408 32584 ft 520 kts 70°
2026-05-09 19:34 42.38305 -79.77728 31706 ft 519 kts 70°
2026-05-09 19:34 42.39315 -79.73040 30927 ft 516 kts 70°
2026-05-09 19:35 42.40307 -79.68421 30322 ft 508 kts 70°
2026-05-09 19:35 42.41287 -79.63852 29679 ft 502 kts 70°
2026-05-09 19:35 42.42250 -79.59354 28968 ft 494 kts 70°
2026-05-09 19:35 42.43199 -79.54917 28335 ft 486 kts 70°
2026-05-09 19:36 42.44128 -79.50566 27704 ft 479 kts 70°
2026-05-09 19:36 42.45046 -79.46263 27083 ft 472 kts 71°
2026-05-09 19:36 42.45949 -79.42021 26459 ft 466 kts 71°
2026-05-09 19:36 42.46838 -79.37835 25867 ft 459 kts 71°
2026-05-09 19:37 42.47715 -79.33696 25255 ft 454 kts 71°
2026-05-09 19:37 42.48792 -79.29720 24651 ft 446 kts 61°
2026-05-09 19:37 42.50289 -79.26095 24135 ft 436 kts 52°
2026-05-09 19:37 42.52097 -79.22886 23659 ft 424 kts 43°
2026-05-09 19:38 42.54118 -79.19997 23043 ft 420 kts 41°
2026-05-09 19:38 42.56150 -79.17167 22378 ft 417 kts 41°
2026-05-09 19:38 42.58165 -79.14367 21757 ft 413 kts 41°
2026-05-09 19:38 42.60157 -79.11582 21161 ft 409 kts 41°
2026-05-09 19:39 42.62124 -79.08812 20568 ft 406 kts 42°
2026-05-09 19:39 42.64073 -79.06049 19976 ft 403 kts 42°
2026-05-09 19:39 42.66000 -79.03305 19403 ft 400 kts 42°
2026-05-09 19:39 42.67908 -79.00582 18830 ft 397 kts 42°
2026-05-09 19:40 42.69807 -78.97868 18253 ft 395 kts 43°
2026-05-09 19:40 42.71699 -78.95161 17594 ft 394 kts 43°
2026-05-09 19:40 42.73576 -78.92471 16975 ft 391 kts 43°
2026-05-09 19:40 42.75440 -78.89799 16379 ft 388 kts 43°
2026-05-09 19:41 42.77286 -78.87148 15801 ft 384 kts 43°
2026-05-09 19:41 42.79115 -78.84521 15235 ft 381 kts 43°
2026-05-09 19:41 42.80864 -78.81820 14654 ft 378 kts 45°
2026-05-09 19:41 42.82644 -78.79215 14114 ft 374 kts 42°
2026-05-09 19:42 42.84444 -78.76706 13689 ft 367 kts 42°
2026-05-09 19:42 42.86217 -78.74233 13113 ft 364 kts 43°
2026-05-09 19:42 42.87965 -78.71759 12544 ft 361 kts 43°
2026-05-09 19:42 42.89693 -78.69281 11969 ft 359 kts 43°
2026-05-09 19:43 42.91398 -78.66820 11419 ft 356 kts 44°
2026-05-09 19:43 42.93092 -78.64368 11107 ft 354 kts 44°
2026-05-09 19:43 42.94768 -78.61938 11020 ft 348 kts 44°
2026-05-09 19:43 42.96386 -78.59591 10992 ft 331 kts 44°
2026-05-09 19:44 42.97885 -78.57296 10885 ft 318 kts 48°
2026-05-09 19:44 42.99252 -78.54961 10567 ft 314 kts 49°
2026-05-09 19:44 43.00594 -78.52627 10328 ft 311 kts 49°
2026-05-09 19:44 43.01929 -78.50300 10084 ft 312 kts 49°
2026-05-09 19:45 43.03270 -78.47965 9850 ft 313 kts 49°
2026-05-09 19:45 43.04621 -78.45617 9602 ft 314 kts 49°
2026-05-09 19:45 43.05972 -78.43280 9340 ft 311 kts 49°
2026-05-09 19:45 43.07301 -78.40994 9064 ft 304 kts 49°
2026-05-09 19:46 43.08592 -78.38780 8803 ft 299 kts 49°
2026-05-09 19:46 43.09885 -78.36569 8533 ft 297 kts 49°
2026-05-09 19:46 43.11173 -78.34373 8282 ft 296 kts 49°
2026-05-09 19:46 43.12462 -78.32184 8033 ft 294 kts 49°
2026-05-09 19:47 43.13749 -78.30009 7771 ft 293 kts 49°
2026-05-09 19:47 43.15032 -78.27845 7527 ft 293 kts 49°
2026-05-09 19:47 43.16320 -78.25681 7272 ft 292 kts 49°
2026-05-09 19:47 43.17603 -78.23532 7067 ft 290 kts 49°
2026-05-09 19:48 43.18877 -78.21404 6885 ft 288 kts 49°
2026-05-09 19:48 43.20140 -78.19297 6713 ft 285 kts 49°
2026-05-09 19:48 43.21403 -78.17200 6536 ft 286 kts 49°
2026-05-09 19:48 43.22680 -78.15098 6387 ft 289 kts 49°
2026-05-09 19:49 43.23982 -78.12973 6224 ft 292 kts 49°
2026-05-09 19:49 43.25293 -78.10848 6050 ft 292 kts 49°
2026-05-09 19:49 43.26606 -78.08732 5866 ft 290 kts 49°
2026-05-09 19:49 43.27852 -78.06571 5676 ft 289 kts 60°
2026-05-09 19:50 43.28666 -78.04068 5514 ft 285 kts 69°
2026-05-09 19:50 43.29413 -78.01558 5330 ft 281 kts 69°
2026-05-09 19:50 43.30142 -77.99123 5182 ft 270 kts 69°
2026-05-09 19:50 43.30841 -77.96798 4999 ft 259 kts 69°
2026-05-09 19:51 43.31521 -77.94537 4799 ft 253 kts 69°
2026-05-09 19:51 43.32181 -77.92333 4631 ft 248 kts 69°
2026-05-09 19:51 43.32834 -77.90144 4463 ft 247 kts 69°
2026-05-09 19:51 43.33478 -77.87971 4284 ft 245 kts 69°
2026-05-09 19:52 43.34117 -77.85811 4117 ft 243 kts 69°
2026-05-09 19:52 43.34759 -77.83656 3951 ft 246 kts 69°
2026-05-09 19:52 43.35410 -77.81467 3776 ft 248 kts 69°
2026-05-09 19:52 43.36057 -77.79273 3591 ft 247 kts 69°
2026-05-09 19:53 43.36700 -77.77092 3410 ft 246 kts 69°
2026-05-09 19:53 43.37344 -77.74920 3242 ft 245 kts 69°
2026-05-09 19:53 43.38002 -77.72755 3091 ft 245 kts 69°
2026-05-09 19:53 43.38661 -77.70607 2943 ft 242 kts 69°
2026-05-09 19:54 43.39294 -77.68556 2819 ft 225 kts 69°
2026-05-09 19:54 43.39821 -77.66573 2539 ft 219 kts 84°
2026-05-09 19:54 43.39618 -77.64583 2524 ft 209 kts 115°
2026-05-09 19:54 43.39021 -77.62756 2512 ft 210 kts 118°
2026-05-09 19:55 43.38398 -77.60944 2508 ft 210 kts 118°
2026-05-09 19:55 43.37773 -77.59137 2493 ft 209 kts 118°
2026-05-09 19:55 43.37145 -77.57349 2497 ft 207 kts 118°
2026-05-09 19:56 43.35896 -77.53809 2494 ft 205 kts 118°
2026-05-09 19:56 43.35229 -77.52087 2484 ft 203 kts 131°
2026-05-09 19:56 43.34101 -77.51048 2499 ft 195 kts 168°
2026-05-09 19:56 43.32755 -77.50825 2516 ft 197 kts 179°
2026-05-09 19:57 43.31442 -77.51224 2507 ft 195 kts 212°
2026-05-09 19:57 43.30293 -77.52246 2504 ft 199 kts 211°
2026-05-09 19:57 43.29102 -77.53222 2511 ft 200 kts 211°
2026-05-09 19:57 43.27927 -77.54199 2504 ft 199 kts 212°
2026-05-09 19:58 43.26757 -77.55183 2492 ft 195 kts 212°
2026-05-09 19:58 43.25630 -77.56135 2495 ft 184 kts 212°
2026-05-09 19:58 43.24557 -77.57041 2493 ft 179 kts 212°
2026-05-09 19:58 43.23518 -77.57927 2526 ft 175 kts 211°
2026-05-09 19:59 43.22476 -77.58809 2496 ft 174 kts 211°
2026-05-09 19:59 43.21452 -77.59666 2523 ft 172 kts 213°
2026-05-09 19:59 43.20403 -77.60555 2378 ft 183 kts 213°
2026-05-09 19:59 43.19378 -77.61490 2152 ft 169 kts 211°
2026-05-09 20:00 43.18401 -77.62258 1923 ft 156 kts 211°
2026-05-09 20:00 43.17473 -77.63027 1715 ft 158 kts 214°
2026-05-09 20:00 43.16561 -77.63799 1525 ft 150 kts 213°
2026-05-09 20:00 43.15729 -77.64503 1321 ft 134 kts 212°
2026-05-09 20:01 43.14970 -77.65151 1121 ft 124 kts 211°
2026-05-09 20:01 43.14210 -77.65802 971 ft 131 kts 212°
2026-05-09 20:01 43.13420 -77.66467 800 ft 138 kts 208°
2026-05-09 20:01 43.12597 -77.67166 592 ft 136 kts 212°
2026-05-09 20:02 43.11862 -77.67785 549 ft 100 kts 211°
2026-05-09 20:02 43.11449 -77.68130 547 ft 37 kts 211°
2026-05-09 20:02 43.11274 -77.68278 549 ft 24 kts 211°
2026-05-09 20:03 43.11071 -77.68302 549 ft 12 kts 97°
2026-05-09 20:03 43.11149 -77.68208 549 ft 17 kts 32°
2026-05-09 20:03 43.11257 -77.68117 548 ft 18 kts 31°
2026-05-09 20:03 43.11364 -77.68026 548 ft 18 kts 32°
2026-05-09 20:04 43.11467 -77.67939 549 ft 17 kts 31°
2026-05-09 20:04 43.11567 -77.67856 549 ft 16 kts 30°
2026-05-09 20:04 43.11663 -77.67776 552 ft 16 kts 31°
2026-05-09 20:04 43.11754 -77.67698 549 ft 15 kts 32°
2026-05-09 20:05 43.11848 -77.67619 553 ft 17 kts 31°
2026-05-09 20:05 43.11955 -77.67530 549 ft 18 kts 31°
2026-05-09 20:05 43.12061 -77.67442 554 ft 18 kts 31°
2026-05-09 20:05 43.12166 -77.67354 551 ft 17 kts 31°
2026-05-09 20:06 43.12265 -77.67271 546 ft 16 kts 31°
2026-05-09 20:06 43.12353 -77.67196 551 ft 13 kts 32°
2026-05-09 20:06 43.12428 -77.67132 549 ft 13 kts 32°
2026-05-09 20:06 43.12499 -77.67062 549 ft 13 kts 58°
2026-05-09 20:07 43.12512 -77.66921 549 ft 16 kts 88°
2026-05-09 20:07 43.12515 -77.66793 549 ft 11 kts 88°
2026-05-09 20:07 43.12518 -77.66696 549 ft 10 kts 88°
2026-05-09 20:07 43.12523 -77.66594 549 ft 11 kts 72°
2026-05-09 20:08 43.12582 -77.66533 549 ft 11 kts 25°
2026-05-09 20:08 43.12679 -77.66530 549 ft 6 kts 304°
2026-05-09 20:08 43.12692 -77.66564 554 ft 3 kts 297°
2026-05-09 20:09 43.12696 -77.66575 552 ft 0 kts 297°
2026-05-09 20:09 43.12697 -77.66575 551 ft 0 kts 297°